Wind_Speed
7 7 7 8 7 7 7 7 7 7 7 7 7 7 7 7 7 7 6 6 6 5 5 5 5 4 3 2 1 2 2 2 3 4 4 5 5 6 6 7 8 9 9
6 6 6 6 7 7 7 7 7 7 7 6 6 6 6 6 6 6 6 6 6 5 4 4 4 4 3 3 2 2 3 3 4 5 5 5 6 7 7 8 9 9 10
5 5 5 5 5 5 5 6 6 6 6 6 6 6 6 5 6 6 6 5 5 5 4 4 4 4 4 4 3 3 3 4 5 6 6 6 7 7 8 8 9 10 11
3 4 4 4 4 4 4 4 5 6 6 6 5 5 5 5 5 4 4 4 5 5 4 5 4 4 4 4 4 5 5 5 6 6 6 7 7 8 9 10 10 11 12
2 2 3 3 3 3 3 3 4 4 5 5 5 4 4 5 4 4 5 5 4 4 6 6 5 5 5 6 6 6 6 6 7 7 8 8 9 9 10 11 12 12 13
3 2 2 3 3 2 2 2 2 3 4 4 4 4 4 5 5 4 5 6 5 5 6 6 6 6 6 6 7 7 8 8 8 8 9 9 10 11 11 12 13 14 14
4 3 4 3 3 3 2 2 1 2 3 3 4 5 5 5 5 5 6 6 7 6 7 7 7 7 7 7 7 8 8 9 9 10 10 11 11 11 12 13 13 13 14
4 4 5 4 4 4 3 3 3 3 3 3 4 5 5 6 5 5 6 7 7 7 7 7 8 8 8 8 9 9 9 10 10 11 11 12 12 12 12 13 13 14 14
6 7 6 5 6 5 5 5 4 5 4 4 5 5 5 6 6 6 6 7 7 7 8 9 9 9 9 9 9 10 10 11 11 12 12 13 13 12 13 14 14 14 14
8 8 7 7 7 7 7 6 6 6 6 6 6 6 6 6 7 7 7 7 8 9 10 10 10 10 10 10 11 11 12 12 12 13 12 12 12 13 14 14 14 14 14
9 9 9 9 9 9 8 8 8 8 8 8 8 8 8 8 8 7 8 8 9 10 10 10 11 11 11 11 11 12 12 13 13 13 13 13 14 14 15 15 15 15 16
11 11 11 11 11 11 10 10 10 11 10 10 10 10 10 10 9 9 9 9 10 11 11 12 12 12 12 13 12 13 13 13 14 14 14 15 15 15 15 15 16 16 17
13 13 13 13 13 12 12 12 12 12 13 12 11 11 12 11 11 11 11 11 11 12 12 13 14 14 14 14 14 14 14 15 15 16 16 16 16 16 16 16 17 17 17
14 14 14 14 14 14 14 14 14 14 14 14 13 13 13 13 13 13 13 13 15 15 14 14 14 15 15 16 16 15 15 16 17 17 17 17 17 17 18 18 18 18 18
15 15 15 14 15 15 15 15 15 15 15 15 15 14 14 14 14 14 15 15 16 16 15 15 15 16 16 16 17 17 17 18 18 18 18 19 19 19 19 19 18 18 19
17 16 16 16 16 16 16 15 15 16 16 16 16 16 15 16 16 17 17 18 18 18 18 17 16 17 17 17 18 18 18 19 19 19 19 19 19 19 20 20 19 19 20
19 18 17 18 18 18 17 16 16 17 17 17 18 18 18 18 19 19 19 20 20 19 19 19 19 18 18 19 19 20 20 20 20 20 20 21 21 21 21 21 21 21 22
20 20 19 19 19 19 18 18 18 19 19 19 19 19 19 20 20 20 21 21 21 21 20 19 19 19 20 20 20 21 21 21 21 21 22 22 22 22 22 23 23 23 23
20 20 21 21 21 21 21 20 20 21 21 21 20 20 21 21 22 23 22 22 21 21 20 19 20 21 21 21 21 22 22 22 23 23 24 24 24 23 24 24 24 24 24
21 22 22 22 22 22 22 22 23 22 22 22 22 22 22 22 23 24 23 23 22 22 22 21 21 21 22 22 22 24 24 24 25 25 25 24 24 24 24 25 25 25 25
22 23 23 24 24 24 24 24 23 22 22 23 23 23 24 25 25 24 23 24 24 24 24 23 23 23 23 23 24 25 26 26 26 27 26 26 26 26 26 26 26 26 26
24 24 24 25 25 25 25 25 25 24 24 25 25 25 24 25 25 24 25 25 25 26 25 25 25 24 24 25 26 26 27 27 27 27 27 27 27 27 27 27 26 26 26
26 26 26 27 27 27 27 27 26 26 26 27 27 26 26 26 26 26 26 26 27 27 26 26 26 26 26 26 27 27 27 27 28 28 28 28 28 28 27 27 27 27 27
27 27 28 28 28 29 29 29 28 28 29 29 29 28 28 28 28 27 27 28 28 28 27 27 27 26 26 27 27 27 27 28 28 29 28 28 28 28 28 28 28 28 28
29 29 30 30 30 30 31 31 30 30 30 30 30 30 30 30 29 29 29 29 29 28 28 27 28 27 27 27 27 28 28 28 29 28 28 28 28 28 28 28 28 28 28
30 31 31 32 32 32 32 31 31 32 32 31 31 31 32 32 31 31 30 30 30 29 29 29 29 28 28 28 28 28 28 27 27 27 28 28 28 28 28 28 28 27 27
Wind_Direction
61 64 65 65 69 69 67 66 61 63 63 65 64 64 65 65 66 66 67 71 68 68 63 52 43 34 23 19 26 14 352 337 323 310 308 307 305 300 299 297 297 296 293
59 63 65 65 64 69 70 67 57 51 51 57 57 52 58 59 57 53 59 61 62 58 49 44 38 26 18 7 353 351 343 335 330 324 318 315 313 307 304 301 299 299 297
52 55 56 61 62 65 67 64 52 45 41 44 50 52 52 51 51 56 59 55 49 52 49 40 27 25 18 7 353 341 330 325 325 321 315 313 312 312 310 308 305 301 299
40 52 52 50 51 55 58 54 48 46 43 42 47 51 46 40 46 51 50 40 33 32 24 18 11 7 6 358 343 334 328 323 322 318 313 311 309 308 308 309 307 305 301
6 33 36 32 34 37 46 43 45 49 40 38 38 35 33 28 28 25 22 17 13 10 4 0 358 355 356 353 346 335 329 326 321 317 313 309 307 305 305 308 308 308 306
317 327 343 356 6 8 15 24 31 22 25 27 21 19 17 15 12 3 357 357 354 353 353 353 350 348 347 346 344 338 327 320 318 316 314 311 309 307 308 306 307 309 308
304 318 318 317 327 327 327 330 341 336 349 359 1 2 359 355 358 356 352 350 347 347 346 344 343 340 334 331 331 330 328 323 317 314 313 314 308 306 306 306 308 310 310
295 303 307 302 296 298 301 303 298 304 320 328 333 338 342 341 340 340 346 348 344 338 334 332 331 331 328 328 328 327 327 324 321 317 317 317 312 310 310 311 311 312 312
286 290 292 291 292 289 288 291 285 285 292 300 312 320 325 329 330 332 337 340 342 337 330 328 327 325 324 325 327 325 324 323 321 319 319 320 319 316 318 316 312 310 310
280 283 281 283 290 288 283 283 282 280 281 288 296 302 312 316 314 319 326 328 330 330 328 325 326 325 323 321 322 323 324 324 322 320 319 320 321 321 320 316 313 312 310
269 275 276 278 283 286 280 281 280 279 280 283 289 295 300 304 308 311 312 316 320 321 322 323 324 323 320 316 316 317 321 323 321 321 321 321 319 316 316 314 312 312 311
267 272 276 276 279 282 282 279 278 278 277 281 287 291 294 296 299 302 304 307 312 314 313 315 316 317 316 316 314 314 316 319 321 319 316 316 316 314 313 312 311 310 310
265 270 273 275 279 279 282 280 279 277 276 280 285 289 288 292 297 300 300 302 306 310 307 309 309 308 308 308 309 311 313 314 315 315 313 313 313 312 312 310 309 309 308
263 267 269 272 276 277 279 279 276 277 278 282 284 285 289 292 293 299 305 303 305 310 304 303 305 304 303 304 304 305 306 308 310 311 311 310 310 310 311 310 308 307 306
261 265 266 269 273 274 277 278 276 277 278 282 281 280 286 290 292 297 301 303 305 307 301 299 301 301 300 302 302 301 302 303 305 307 308 309 308 309 309 310 308 306 305
261 264 266 267 270 274 275 274 273 276 276 278 279 278 282 287 291 296 300 302 302 303 305 301 299 300 298 299 298 298 299 301 302 303 304 305 305 306 305 306 306 305 304
260 261 263 264 269 272 271 271 274 276 276 276 277 278 279 284 287 291 295 299 300 300 302 305 299 298 298 297 296 296 297 299 301 301 302 303 303 303 303 304 305 304 303
259 259 259 262 267 267 269 271 274 276 276 277 279 283 283 285 288 292 296 298 299 299 299 301 301 299 300 298 296 295 295 296 297 298 299 299 299 300 302 303 303 302 302
259 258 258 260 262 265 268 270 272 273 275 276 279 281 286 288 292 290 291 295 296 297 297 297 298 297 297 297 296 296 295 295 296 297 297 296 297 299 299 301 301 301 300
256 257 259 261 262 264 266 269 270 272 274 277 280 281 285 287 289 290 290 292 294 295 293 293 294 295 294 294 295 296 295 294 295 296 295 296 298 299 300 300 299 299 297
254 257 260 263 264 265 266 268 268 270 273 277 279 281 284 285 285 287 288 289 292 292 293 295 295 294 294 293 295 297 296 296 297 296 296 296 297 299 300 300 299 298 296
253 257 261 264 265 266 266 267 268 270 272 275 278 281 283 286 287 288 288 291 292 293 293 294 295 294 293 294 295 295 295 295 296 297 296 295 296 298 298 297 298 297 295
255 258 261 262 263 264 265 266 268 270 272 274 276 279 281 283 286 288 288 290 291 291 292 293 294 294 293 294 294 294 294 295 295 295 295 295 296 296 297 297 296 295 294
255 259 261 261 263 264 266 266 268 271 272 273 275 276 278 280 284 286 287 289 290 290 291 291 293 294 294 294 294 294 294 294 294 294 294 294 295 295 296 296 294 294 293
255 259 261 262 264 266 267 267 269 270 272 273 274 275 277 279 282 284 284 286 288 289 289 290 291 292 293 294 295 296 295 295 295 294 295 295 295 295 296 295 294 294 293
257 259 261 262 264 266 266 266 269 271 271 272 273 274 276 277 279 281 282 284 287 288 288 289 290 291 291 292 294 294 295 296 296 294 294 295 295 294 295 295 295 294 293
Height
5912 5911 5910 5908 5907 5906 5905 5904 5904 5903 5902 5901 5901 5900 5899 5898 5898 5897 5895 5894 5894 5893 5893 5892 5891 5891 5890 5889 5889 5888 5888 5887 5887 5886 5886 5885 5884 5884 5883 5882 5882 5881 5880
5913 5912 5911 5910 5909 5908 5907 5906 5905 5904 5903 5902 5902 5901 5900 5899 5898 5898 5897 5896 5895 5894 5893 5893 5892 5891 5890 5889 5889 5888 5888 5887 5886 5886 5885 5884 5884 5882 5881 5880 5880 5879 5877
5914 5913 5912 5911 5910 5909 5908 5907 5906 5905 5904 5903 5902 5902 5901 5900 5899 5898 5897 5896 5895 5894 5893 5892 5892 5891 5890 5889 5888 5888 5887 5886 5886 5885 5884 5883 5882 5881 5880 5879 5878 5877 5875
5914 5913 5912 5911 5911 5910 5909 5908 5907 5906 5905 5904 5903 5903 5902 5901 5900 5899 5898 5896 5895 5894 5893 5892 5892 5891 5890 5889 5888 5887 5886 5885 5884 5884 5883 5882 5881 5880 5879 5877 5876 5875 5873
5914 5914 5913 5912 5911 5910 5909 5909 5908 5907 5906 5905 5904 5903 5902 5901 5900 5899 5898 5897 5896 5895 5893 5892 5891 5890 5889 5888 5887 5886 5885 5884 5883 5882 5881 5880 5879 5878 5877 5876 5874 5873 5871
5914 5913 5913 5912 5911 5910 5909 5909 5908 5907 5906 5905 5904 5904 5903 5902 5901 5900 5899 5897 5896 5895 5894 5892 5891 5890 5889 5888 5886 5885 5884 5883 5882 5881 5879 5878 5877 5876 5875 5873 5871 5870 5868
5913 5913 5912 5912 5911 5910 5909 5909 5908 5907 5906 5905 5904 5903 5902 5901 5900 5899 5898 5897 5896 5894 5893 5892 5891 5889 5888 5887 5885 5884 5883 5881 5880 5879 5877 5876 5874 5873 5872 5870 5869 5867 5865
5912 5912 5911 5911 5910 5909 5909 5908 5907 5907 5906 5905 5904 5903 5902 5901 5900 5899 5897 5896 5895 5893 5892 5891 5890 5888 5887 5885 5884 5883 5881 5880 5878 5877 5875 5873 5872 5870 5869 5868 5866 5864 5862
5911 5911 5910 5909 5909 5908 5908 5907 5906 5906 5905 5904 5903 5902 5901 5900 5898 5897 5896 5895 5893 5892 5891 5889 5888 5887 5885 5884 5882 5881 5879 5878 5876 5874 5873 5871 5869 5867 5866 5865 5863 5861 5859
5909 5909 5908 5908 5908 5907 5906 5905 5905 5904 5904 5903 5902 5901 5900 5898 5897 5896 5895 5893 5892 5891 5889 5888 5886 5885 5883 5881 5880 5878 5877 5875 5874 5872 5870 5868 5867 5865 5863 5861 5859 5858 5856
5907 5907 5906 5906 5905 5905 5904 5903 5903 5902 5902 5901 5900 5899 5898 5897 5895 5894 5893 5891 5890 5889 5887 5886 5884 5882 5881 5879 5878 5876 5874 5873 5871 5869 5868 5866 5864 5862 5860 5858 5856 5854 5852
5904 5904 5904 5903 5903 5903 5902 5901 5901 5900 5899 5899 5898 5897 5896 5895 5894 5892 5891 5889 5888 5887 5885 5883 5882 5880 5878 5876 5875 5873 5872 5870 5868 5866 5865 5863 5861 5859 5857 5855 5853 5851 5848
5901 5901 5900 5900 5900 5900 5900 5899 5898 5897 5897 5896 5895 5895 5893 5892 5891 5890 5888 5887 5885 5884 5882 5880 5879 5877 5875 5873 5872 5870 5869 5867 5865 5863 5861 5859 5857 5855 5853 5851 5849 5847 5845
5897 5897 5897 5897 5897 5897 5896 5896 5895 5895 5894 5893 5893 5892 5890 5889 5888 5887 5885 5884 5882 5880 5877 5876 5875 5873 5872 5870 5868 5866 5865 5863 5861 5859 5857 5855 5853 5851 5849 5847 5844 5842 5840
5893 5893 5893 5893 5893 5893 5892 5892 5892 5891 5891 5890 5890 5889 5888 5886 5885 5884 5882 5881 5879 5876 5873 5871 5871 5869 5868 5866 5864 5862 5861 5859 5857 5855 5853 5851 5849 5846 5844 5842 5840 5838 5835
5888 5889 5889 5889 5889 5889 5888 5888 5888 5888 5887 5887 5886 5885 5884 5883 5881 5880 5879 5877 5875 5873 5870 5868 5866 5865 5863 5861 5860 5858 5856 5854 5852 5851 5848 5846 5844 5842 5840 5837 5835 5833 5831
5883 5884 5884 5884 5884 5884 5884 5884 5884 5883 5883 5882 5882 5881 5880 5879 5878 5876 5874 5872 5870 5868 5866 5864 5862 5860 5858 5857 5855 5853 5851 5849 5847 5845 5843 5841 5839 5837 5835 5832 5830 5827 5825
5877 5878 5879 5879 5880 5879 5880 5879 5879 5879 5878 5878 5877 5876 5875 5874 5872 5871 5869 5867 5865 5863 5861 5859 5857 5855 5854 5852 5850 5848 5846 5844 5842 5840 5838 5835 5833 5831 5829 5826 5824 5821 5819
5872 5872 5873 5873 5874 5874 5874 5874 5874 5873 5873 5872 5872 5871 5870 5868 5867 5865 5864 5862 5860 5858 5855 5854 5852 5851 5849 5847 5845 5843 5840 5838 5836 5834 5831 5829 5827 5825 5822 5820 5817 5815 5813
5866 5866 5867 5868 5868 5868 5868 5868 5868 5867 5867 5866 5866 5865 5864 5862 5861 5859 5857 5856 5854 5852 5850 5848 5846 5845 5843 5841 5838 5836 5834 5832 5830 5827 5825 5822 5820 5818 5815 5813 5810 5808 5805
5859 5860 5861 5861 5862 5862 5862 5862 5862 5862 5861 5861 5860 5859 5857 5856 5854 5852 5851 5850 5848 5846 5844 5842 5840 5838 5836 5834 5832 5830 5827 5825 5822 5820 5817 5815 5813 5811 5808 5806 5803 5801 5798
5852 5853 5854 5854 5855 5855 5855 5856 5855 5855 5855 5854 5853 5852 5851 5849 5847 5846 5844 5843 5841 5840 5838 5836 5834 5831 5829 5827 5825 5823 5820 5818 5815 5813 5810 5808 5806 5803 5801 5798 5796 5794 5791
5845 5846 5846 5847 5847 5848 5848 5848 5848 5848 5848 5847 5846 5845 5844 5842 5841 5839 5837 5836 5834 5832 5830 5829 5827 5824 5822 5820 5817 5815 5812 5810 5807 5805 5803 5800 5798 5796 5793 5791 5788 5786 5784
5837 5838 5839 5839 5840 5840 5840 5841 5840 5840 5840 5839 5838 5837 5836 5835 5833 5832 5830 5828 5827 5825 5823 5821 5819 5816 5814 5812 5809 5807 5804 5802 5799 5797 5795 5793 5790 5788 5785 5783 5780 5778 5775
5829 5830 5830 5831 5831 5832 5832 5832 5831 5831 5831 5830 5830 5829 5827 5826 5825 5824 5822 5820 5819 5817 5815 5813 5811 5809 5807 5804 5802 5799 5797 5794 5791 5789 5787 5784 5782 5779 5777 5774 5772 5770 5767
5819 5820 5821 5821 5822 5822 5822 5822 5822 5822 5822 5821 5821 5820 5819 5817 5816 5815 5814 5812 5810 5808 5807 5805 5803 5801 5799 5796 5794 5791 5789 5786 5783 5781 5779 5776 5774 5771 5768 5766 5763 5761 5759